Weather History for KBZN - October, 2012

Change the Weather History Date:

Friday, October 12, 2012

  Actual Average Record
Temperature  
Mean Temperature 49 °F 47 °F  
Max Temperature 74 °F 63 °F 80 °F (1950)
Min Temperature 23 °F 32 °F 9 °F (2009)
Degree Days  
Heating Degree Days 16    
Month to date heating degree days 258  
Since 1 July heating degree days 509  
Cooling Degree Days 0    
Month to date cooling degree days 0  
Year to date cooling degree days 284  
Moisture  
Dew Point 26 °F    
Average Humidity 55    
Maximum Humidity 92    
Minimum Humidity 17    
Precipitation  
Precipitation 0.00 in 0.03 in 0.80 in (1995)
Month to date precipitation T 0.48  
Year to date precipitation 7.04 12.09  
Snow  
Snow 0.00 in 0.10 in 3.00 in (1981)
Month to date snowfall T 0.6  
Since 1 July snowfall T 0.9  
Since 1 September snowfall T 0.9  
Snow Depth 0.00 in    
Sea Level Pressure  
Sea Level Pressure 29.89 in    
Wind  
Wind Speed 3 mph (SSW)    
Max Wind Speed 10 mph    
Max Gust Speed 12 mph    
Visibility 10 miles    
Events      
T = Trace of Precipitation, MM = Missing Value Source: NWS Daily Summary

Daily Weather History Graph

Daily Weather History Graph

Search for Another Location

Airport or City:

Trip Planner

Search our weather history database for the weather conditions in past years. The results will help you decide how hot, cold, wet, or windy it might be!

Date:

Astronomy

Oct. 12, 2012 Rise Set
Actual Time 7:38 AM MDT 6:43 PM MDT
Civil Twilight 7:08 AM MDT 7:13 PM MDT
Nautical Twilight 6:33 AM MDT 7:47 PM MDT
Astronomical Twilight 5:59 AM MDT 8:21 PM MDT
Moon 4:16 AM MDT (10/12) 5:01 PM MDT (10/12)
Length of Visible Light 12h 04m
Length of Day
11h 05m
Waning Crescent, 10% of the Moon is Illuminated
Oct 12
Waning Crescent
Oct 15
New
Oct 21
First Quarter
Oct 29
Full
Nov 6
Last Quarter

Hourly Weather History & Observations

Time (MDT) Temp. Windchill Dew Point Humidity Pressure Visibility Wind Dir Wind Speed Gust Speed Precip Events Conditions
12:56 AM 34.0 °F 31.0 °F 28.9 °F 82% 30.01 in 10.0 mi WSW 3.5 mph - N/A   Clear
1:56 AM 30.9 °F - 28.0 °F 89% 30.00 in 10.0 mi Calm Calm - N/A   Clear
2:56 AM 30.9 °F - 27.0 °F 85% 29.99 in 10.0 mi Calm Calm - N/A   Clear
3:56 AM 30.0 °F 25.2 °F 27.0 °F 88% 29.97 in 10.0 mi SSW 4.6 mph - N/A   Clear
4:56 AM 28.9 °F 25.2 °F 25.0 °F 85% 29.96 in 10.0 mi South 3.5 mph - N/A   Clear
5:56 AM 24.1 °F - 21.0 °F 88% 29.99 in 10.0 mi Calm Calm - N/A   Clear
6:56 AM 26.1 °F 21.9 °F 21.0 °F 81% 30.00 in 10.0 mi South 3.5 mph - N/A   Clear
7:56 AM 27.0 °F - 23.0 °F 85% 30.00 in 10.0 mi Calm Calm - N/A   Clear
8:56 AM 30.9 °F - 27.0 °F 85% 30.00 in 10.0 mi Calm Calm - N/A   Clear
9:56 AM 41.0 °F - 30.2 °F 65% 29.92 in 10.0 mi Calm Calm - N/A   Clear
10:56 AM 48.0 °F - 30.9 °F 52% 29.94 in 10.0 mi Calm Calm - N/A   Clear
11:56 AM 55.0 °F - 30.0 °F 38% 29.89 in 10.0 mi Calm Calm - N/A   Clear
12:56 PM 60.8 °F - 30.2 °F 31% 29.86 in 10.0 mi Calm Calm - N/A   Clear
1:56 PM 66.2 °F - 28.4 °F 24% 29.83 in 10.0 mi Calm Calm - N/A   Clear
2:56 PM 71.1 °F - 28.0 °F 20% 29.76 in 10.0 mi Variable 3.5 mph - N/A   Clear
3:56 PM 73.9 °F - 28.9 °F 19% 29.73 in 10.0 mi NNW 5.8 mph - N/A   Clear
4:56 PM 71.6 °F - 28.4 °F 20% 29.76 in 10.0 mi NNW 6.9 mph - N/A   Clear
5:56 PM 72.0 °F - 25.0 °F 17% 29.75 in 10.0 mi ENE 3.5 mph - N/A   Clear
6:56 PM 60.8 °F - 23.0 °F 23% 29.78 in 10.0 mi South 4.6 mph - N/A   Clear
7:56 PM 54.0 °F - 25.0 °F 33% 29.83 in 10.0 mi Variable 4.6 mph - N/A   Clear
8:56 PM 48.0 °F - 27.0 °F 44% 29.86 in 10.0 mi SSE 8.1 mph - N/A   Clear
9:56 PM 46.4 °F 42.9 °F 24.8 °F 43% 29.85 in 10.0 mi South 6.9 mph - N/A   Clear
10:56 PM 53.1 °F - 19.9 °F 27% 29.83 in 10.0 mi SSW 6.9 mph - N/A   Mostly Cloudy
11:56 PM 44.6 °F - 21.2 °F 39% 29.87 in 10.0 mi Calm Calm - N/A   Partly Cloudy